Weather History for KONA - March, 2013

Change the Weather History Date:

Friday, March 8, 2013

  Actual Average Record
Temperature  
Mean Temperature 28 °F -  
Max Temperature 41 °F 44 °F 56 °F (1977)
Min Temperature 15 °F 24 °F -5 °F (2008)
Degree Days  
Heating Degree Days 37    
Moisture  
Dew Point 22 °F    
Average Humidity 73    
Maximum Humidity 93    
Minimum Humidity 56    
Precipitation  
Precipitation 0.00 in - - ()
Sea Level Pressure  
Sea Level Pressure 30.31 in    
Wind  
Wind Speed 4 mph (SSE)    
Max Wind Speed 12 mph    
Max Gust Speed -    
Visibility 10 miles    
Events      
Averages and records for this station are not official NWS values.
T = Trace of Precipitation, MM = Missing Value Source: NWS Daily Summary

Daily Weather History Graph

Daily Weather History Graph

Search for Another Location

Airport or City:

Trip Planner

Search our weather history database for the weather conditions in past years. The results will help you decide how hot, cold, wet, or windy it might be!

Date:

Astronomy

Mar. 08, 2013 Rise Set
Actual Time 6:31 AM CST 6:04 PM CST
Civil Twilight 6:02 AM CST 6:33 PM CST
Nautical Twilight 5:28 AM CST 7:06 PM CST
Astronomical Twilight 4:55 AM CST 7:40 PM CST
Moon 4:21 AM CST (3/8) 2:54 PM CST (3/8)
Length of Visible Light 12h 31m
Length of Day
11h 33m
Waning Crescent, 11% of the Moon is Illuminated
Mar 8
Waning Crescent
Mar 11
New
Mar 19
First Quarter
Mar 27
Full
Apr 2
Last Quarter

Hourly Weather History & Observations

Time (CST) Temp. Windchill Dew Point Humidity Pressure Visibility Wind Dir Wind Speed Gust Speed Precip Events Conditions
12:16 AM 19.4 °F - 14.0 °F 80% 30.38 in 10.0 mi Calm Calm - N/A   Clear
12:36 AM 19.4 °F - 12.2 °F 74% 30.38 in 10.0 mi Calm Calm - N/A   Clear
12:56 AM 19.4 °F 14.3 °F 14.0 °F 80% 30.38 in 10.0 mi SSE 3.5 mph - N/A   Clear
1:16 AM 19.4 °F - 14.0 °F 80% 30.39 in 10.0 mi Calm Calm - N/A   Clear
1:36 AM 15.8 °F 10.2 °F 12.2 °F 86% 30.39 in 10.0 mi SE 3.5 mph - N/A   Clear
1:56 AM 19.4 °F 14.3 °F 14.0 °F 80% 30.39 in 10.0 mi South 3.5 mph - N/A   Clear
2:16 AM 17.6 °F - 12.2 °F 79% 30.39 in 10.0 mi Calm Calm - N/A   Clear
2:36 AM 19.4 °F 11.5 °F 15.8 °F 86% 30.38 in 10.0 mi SSE 5.8 mph - N/A   Clear
2:56 AM 19.4 °F 11.5 °F 15.8 °F 86% 30.37 in 10.0 mi SSE 5.8 mph - N/A   Clear
3:16 AM 19.4 °F 14.3 °F 15.8 °F 86% 30.36 in 10.0 mi South 3.5 mph - N/A   Clear
3:36 AM 19.4 °F 12.8 °F 14.0 °F 80% 30.35 in 10.0 mi SSE 4.6 mph - N/A   Clear
3:56 AM 19.4 °F - 14.0 °F 80% 30.36 in 10.0 mi Calm Calm - N/A   Clear
4:16 AM 19.4 °F 14.3 °F 14.0 °F 80% 30.37 in 10.0 mi SSW 3.5 mph - N/A   Clear
4:36 AM 19.4 °F 14.3 °F 14.0 °F 80% 30.37 in 10.0 mi SSE 3.5 mph - N/A   Clear
4:56 AM 19.4 °F - 15.8 °F 86% 30.37 in 10.0 mi Calm Calm - N/A   Clear
5:16 AM 19.4 °F 14.3 °F 15.8 °F 86% 30.37 in 10.0 mi SSW 3.5 mph - N/A   Clear
5:36 AM 19.4 °F - 15.8 °F 86% 30.38 in 10.0 mi Calm Calm - N/A   Clear
5:56 AM 19.4 °F - 15.8 °F 86% 30.38 in 10.0 mi Calm Calm - N/A   Clear
6:16 AM 19.4 °F - 15.8 °F 86% 30.38 in 10.0 mi Calm Calm - N/A   Clear
6:36 AM 19.4 °F - 15.8 °F 86% 30.38 in 7.0 mi Calm Calm - N/A   Clear
6:56 AM 19.4 °F 12.8 °F 15.8 °F 86% 30.37 in 7.0 mi SSE 4.6 mph - N/A   Clear
7:16 AM 19.4 °F 14.3 °F 15.8 °F 86% 30.37 in 7.0 mi South 3.5 mph - N/A   Clear
7:36 AM 19.4 °F 11.5 °F 17.6 °F 93% 30.37 in 7.0 mi SSE 5.8 mph - N/A   Clear
7:56 AM 21.2 °F 16.4 °F 17.6 °F 86% 30.37 in 10.0 mi SSE 3.5 mph - N/A   Clear
8:16 AM 23.0 °F 18.4 °F 19.4 °F 86% 30.37 in 10.0 mi South 3.5 mph - N/A   Clear
8:36 AM 26.6 °F 21.2 °F 19.4 °F 74% 30.36 in 10.0 mi SE 4.6 mph - N/A   Clear
8:56 AM 28.4 °F 20.4 °F 21.2 °F 74% 30.36 in 10.0 mi SSE 8.1 mph - N/A   Clear
9:16 AM 28.4 °F 19.7 °F 21.2 °F 74% 30.35 in 10.0 mi SE 9.2 mph - N/A   Clear
9:36 AM 28.4 °F 21.2 °F 21.2 °F 74% 30.35 in 10.0 mi SE 6.9 mph - N/A   Clear
9:55 AM 30.2 °F 24.3 °F 21.2 °F 69% 30.35 in 10.0 mi SE 5.8 mph - N/A   Clear
10:16 AM 32.0 °F 25.6 °F 23.0 °F 69% 30.35 in 10.0 mi SE 6.9 mph - N/A   Clear
10:36 AM 32.0 °F 24.8 °F 23.0 °F 69% 30.34 in 10.0 mi SE 8.1 mph - N/A   Clear
10:55 AM 33.8 °F 28.6 °F 23.0 °F 65% 30.35 in 10.0 mi SE 5.8 mph - N/A   Clear
11:16 AM 37.4 °F 30.8 °F 24.8 °F 60% 30.34 in 10.0 mi SSE 9.2 mph - N/A   Clear
11:36 AM 37.4 °F 32.1 °F 24.8 °F 60% 30.35 in 10.0 mi South 6.9 mph - N/A   Clear
11:55 AM 37.4 °F 32.8 °F 23.0 °F 56% 30.34 in 10.0 mi South 5.8 mph - N/A   Clear
12:16 PM 37.4 °F 32.8 °F 23.0 °F 56% 30.34 in 10.0 mi South 5.8 mph - N/A   Clear
12:36 PM 37.4 °F 32.8 °F 24.8 °F 60% 30.32 in 10.0 mi SSE 5.8 mph - N/A   Clear
12:55 PM 37.4 °F 29.8 °F 24.8 °F 60% 30.31 in 10.0 mi SSE 11.5 mph - N/A   Clear
1:16 PM 39.2 °F 34.2 °F 24.8 °F 56% 30.30 in 10.0 mi SSE 6.9 mph - N/A   Clear
1:36 PM 39.2 °F 32.5 °F 24.8 °F 56% 30.29 in 10.0 mi SE 10.4 mph - N/A   Clear
1:55 PM 39.2 °F 35.0 °F 24.8 °F 56% 30.29 in 10.0 mi SSW 5.8 mph - N/A   Clear
2:16 PM 39.2 °F 33.0 °F 24.8 °F 56% 30.28 in 10.0 mi SE 9.2 mph - N/A   Clear
2:36 PM 41.0 °F 35.8 °F 26.6 °F 57% 30.27 in 10.0 mi South 8.1 mph - N/A   Clear
2:55 PM 41.0 °F 34.3 °F 26.6 °F 57% 30.27 in 10.0 mi SSE 11.5 mph - N/A   Clear
3:16 PM 41.0 °F 35.8 °F 26.6 °F 57% 30.27 in 10.0 mi SE 8.1 mph - N/A   Clear
3:36 PM 41.0 °F 36.4 °F 26.6 °F 57% 30.26 in 10.0 mi South 6.9 mph - N/A   Clear
3:56 PM 41.0 °F 36.4 °F 26.6 °F 57% 30.26 in 10.0 mi SSE 6.9 mph - N/A   Clear
4:16 PM 41.0 °F 39.0 °F 26.6 °F 57% 30.27 in 10.0 mi South 3.5 mph - N/A   Clear
4:36 PM 39.2 °F 34.2 °F 26.6 °F 61% 30.26 in 10.0 mi SE 6.9 mph - N/A   Clear
4:56 PM 39.2 °F 33.0 °F 26.6 °F 61% 30.26 in 10.0 mi SE 9.2 mph - N/A   Clear
5:16 PM 37.4 °F 29.8 °F 26.6 °F 65% 30.26 in 10.0 mi SSE 11.5 mph - N/A   Clear
5:36 PM 37.4 °F 32.8 °F 26.6 °F 65% 30.25 in 10.0 mi SSE 5.8 mph - N/A   Clear
5:56 PM 37.4 °F 32.8 °F 26.6 °F 65% 30.25 in 10.0 mi SE 5.8 mph - N/A   Clear
6:16 PM 37.4 °F 33.8 °F 26.6 °F 65% 30.26 in 10.0 mi SE 4.6 mph - N/A   Clear
6:36 PM 35.6 °F 29.9 °F 26.6 °F 70% 30.26 in 10.0 mi SE 6.9 mph - N/A   Clear
6:56 PM 33.8 °F 27.7 °F 26.6 °F 75% 30.26 in 10.0 mi SSE 6.9 mph - N/A   Clear
7:16 PM 37.4 °F 31.4 °F 26.6 °F 65% 30.25 in 10.0 mi SSE 8.1 mph - N/A   Clear
7:36 PM 35.6 °F 29.2 °F 26.6 °F 70% 30.24 in 10.0 mi SE 8.1 mph - N/A   Clear
7:56 PM 33.8 °F 27.7 °F 26.6 °F 75% 30.23 in 10.0 mi SE 6.9 mph - N/A   Clear
8:16 PM 32.0 °F 25.6 °F 26.6 °F 80% 30.22 in 10.0 mi SE 6.9 mph - N/A   Clear
8:36 PM 32.0 °F 24.2 °F 26.6 °F 80% 30.22 in 10.0 mi SE 9.2 mph - N/A   Clear
8:56 PM 32.0 °F 23.0 °F 26.6 °F 80% 30.20 in 10.0 mi SE 11.5 mph - N/A   Clear
9:16 PM 32.0 °F 24.8 °F 26.6 °F 80% 30.20 in 10.0 mi SE 8.1 mph - N/A   Clear
9:36 PM 32.0 °F 25.6 °F 26.6 °F 80% 30.20 in 10.0 mi SE 6.9 mph - N/A   Clear
9:56 PM 32.0 °F 24.2 °F 26.6 °F 80% 30.21 in 10.0 mi SE 9.2 mph - N/A   Clear
10:16 PM 32.0 °F 24.8 °F 26.6 °F 80% 30.20 in 10.0 mi SE 8.1 mph - N/A   Clear
10:36 PM 32.0 °F 25.6 °F 26.6 °F 80% 30.20 in 10.0 mi SE 6.9 mph - N/A   Clear
10:56 PM 32.0 °F 24.8 °F 24.8 °F 75% 30.19 in 10.0 mi SE 8.1 mph - N/A   Clear
11:16 PM 32.0 °F 25.6 °F 26.6 °F 80% 30.19 in 10.0 mi SE 6.9 mph - N/A   Clear
11:36 PM 32.0 °F 25.6 °F 26.6 °F 80% 30.18 in 10.0 mi SE 6.9 mph - N/A   Clear
11:56 PM 32.0 °F 24.8 °F 26.6 °F 80% 30.17 in 10.0 mi SE 8.1 mph - N/A   Clear